| time (UTC) | temp F | wind direction | speed MPH | gust MPH | rain 1hr in | rain 24hr in | rain mn in | humidity % | barometer mb |
| 20260508133035 | 60 | 197 | 3.0 | 8.0 | 0.00 | 0.00 | 0.00 | 51 | 1016.3 |
| 20260508132100 | 60 | 193 | 4.0 | 10.0 | 0.00 | 0.00 | 0.00 | 50 | 1016.3 |
| 20260508131035 | 60 | 180 | 4.0 | 8.0 | 0.00 | 0.00 | 0.00 | 49 | 1016.2 |
| 20260508130100 | 61 | 188 | 4.0 | 9.0 | 0.00 | 0.00 | 0.00 | 49 | 1016.1 |
| 20260508125056 | 62 | 211 | 5.0 | 11.0 | 0.00 | 0.00 | 0.00 | 49 | 1016.0 |
| 20260508124220 | 61 | 221 | 6.0 | 12.0 | 0.00 | 0.00 | 0.00 | 49 | 1016.0 |
| 20260508123036 | 61 | 279 | 6.0 | 11.0 | 0.00 | 0.00 | 0.00 | 50 | 1015.9 |
| 20260508122059 | 60 | 208 | 6.0 | 14.0 | 0.00 | 0.00 | 0.00 | 50 | 1016.0 |
| 20260508121036 | 60 | 157 | 6.0 | 11.0 | 0.00 | 0.00 | 0.00 | 51 | 1015.9 |
| 20260508120120 | 60 | 164 | 5.0 | 11.0 | 0.00 | 0.00 | 0.00 | 51 | 1015.9 |
| 20260508115035 | 60 | 228 | 5.0 | 8.0 | 0.00 | 0.00 | 0.00 | 53 | 1015.8 |
| 20260508114059 | 59 | 207 | 5.0 | 9.0 | 0.00 | 0.00 | 0.00 | 53 | 1015.8 |
| 20260508113036 | 58 | 230 | 6.0 | 11.0 | 0.00 | 0.00 | 0.00 | 54 | 1015.7 |
| 20260508112120 | 57 | 219 | 5.0 | 11.0 | 0.00 | 0.00 | 0.00 | 55 | 1015.7 |
| 20260508111035 | 57 | 200 | 4.0 | 11.0 | 0.00 | 0.00 | 0.00 | 55 | 1015.7 |
| 20260508110100 | 57 | 184 | 6.0 | 10.0 | 0.00 | 0.00 | 0.00 | 56 | 1015.7 |
| 20260508105056 | 58 | 179 | 6.0 | 11.0 | 0.00 | 0.00 | 0.00 | 57 | 1015.7 |
| 20260508104100 | 57 | 188 | 3.0 | 7.0 | 0.00 | 0.00 | 0.00 | 59 | 1015.7 |
| 20260508103036 | 58 | 163 | 4.0 | 8.0 | 0.00 | 0.00 | 0.00 | 58 | 1015.6 |
| 20260508102120 | 57 | 229 | 4.0 | 10.0 | 0.00 | 0.00 | 0.00 | 59 | 1015.6 |
| 20260508101036 | 57 | 198 | 4.0 | 8.0 | 0.00 | 0.00 | 0.00 | 59 | 1015.5 |
| 20260508100100 | 56 | 208 | 4.0 | 11.0 | 0.00 | 0.00 | 0.00 | 59 | 1015.4 |
| 20260508095036 | 56 | 198 | 4.0 | 8.0 | 0.00 | 0.00 | 0.00 | 60 | 1015.3 |
| 20260508094059 | 55 | 165 | 4.0 | 8.0 | 0.00 | 0.00 | 0.00 | 61 | 1015.3 |
| 20260508093036 | 55 | 221 | 4.0 | 9.0 | 0.00 | 0.00 | 0.00 | 61 | 1015.3 |
| 20260508092240 | 55 | 205 | 4.0 | 11.0 | 0.00 | 0.00 | 0.00 | 62 | 1015.3 |
| 20260508091035 | 54 | 185 | 4.0 | 8.0 | 0.00 | 0.00 | 0.00 | 65 | 1015.2 |
| 20260508090120 | 55 | 175 | 3.0 | 7.0 | 0.00 | 0.00 | 0.00 | 64 | 1015.2 |
| 20260508085036 | 55 | 253 | 3.0 | 6.0 | 0.00 | 0.00 | 0.00 | 65 | 1015.1 |
| 20260508084120 | 54 | 219 | 5.0 | 8.0 | 0.00 | 0.00 | 0.00 | 70 | 1015.0 |
| 20260508083036 | 53 | 205 | 5.0 | 9.0 | 0.00 | 0.00 | 0.00 | 71 | 1015.0 |
| 20260508082140 | 53 | 223 | 4.0 | 8.0 | 0.00 | 0.00 | 0.00 | 72 | 1014.9 |
| 20260508081116 | 52 | 213 | 3.0 | 8.0 | 0.00 | 0.00 | 0.00 | 73 | 1014.7 |
| 20260508080200 | 52 | 221 | 3.0 | 8.0 | 0.00 | 0.00 | 0.00 | 73 | 1014.6 |
| 20260508075036 | 52 | 215 | 4.0 | 8.0 | 0.00 | 0.00 | 0.00 | 75 | 1014.6 |
| 20260508074100 | 52 | 192 | 3.0 | 5.0 | 0.00 | 0.00 | 0.00 | 75 | 1014.4 |
| 20260508073056 | 52 | 187 | 3.0 | 9.0 | 0.00 | 0.00 | 0.00 | 75 | 1014.3 |
| 20260508072120 | 53 | 180 | 2.0 | 5.0 | 0.00 | 0.00 | 0.00 | 75 | 1014.1 |
| 20260508071036 | 53 | 179 | 4.0 | 7.0 | 0.00 | 0.00 | 0.00 | 75 | 1014.1 |
| 20260508070200 | 53 | 214 | 4.0 | 7.0 | 0.00 | 0.00 | 0.00 | 75 | 1014.0 |
| 20260508065116 | 52 | 206 | 3.0 | 7.0 | 0.00 | 0.00 | 0.00 | 76 | 1013.9 |
| 20260508064140 | 52 | 199 | 3.0 | 5.0 | 0.00 | 0.00 | 0.00 | 77 | 1013.8 |
| 20260508063116 | 52 | 185 | 3.0 | 5.0 | 0.00 | 0.00 | 0.00 | 78 | 1013.7 |
| 20260508062100 | 52 | 162 | 3.0 | 5.0 | 0.00 | 0.00 | 0.00 | 79 | 1013.6 |
| 20260508061056 | 51 | 185 | 3.0 | 7.0 | 0.00 | 0.00 | 0.00 | 79 | 1013.5 |
| 20260508060100 | 51 | 213 | 2.0 | 4.0 | 0.00 | 0.00 | 0.00 | 79 | 1013.3 |
| 20260508055116 | 50 | 213 | 1.0 | 4.0 | 0.00 | 0.00 | 0.00 | 79 | 1013.2 |
| 20260508054100 | 50 | 203 | 1.0 | 4.0 | 0.00 | 0.00 | 0.00 | 79 | 1013.1 |
| 20260508053036 | 50 | 204 | 2.0 | 5.0 | 0.00 | 0.00 | 0.00 | 79 | 1013.0 |
| 20260508052140 | 49 | 207 | 1.0 | 3.0 | 0.00 | 0.00 | 0.00 | 79 | 1012.9 |
| 20260508051056 | 49 | 262 | 0.0 | 3.0 | 0.00 | 0.00 | 0.00 | 79 | 1012.9 |
| 20260508050120 | 49 | 270 | 0.0 | 2.0 | 0.00 | 0.00 | 0.00 | 78 | 1012.8 |
| 20260508045116 | 49 | 145 | 1.0 | 2.0 | 0.00 | 0.00 | 0.00 | 77 | 1012.8 |
| 20260508044120 | 49 | 203 | 0.0 | 2.0 | 0.00 | 0.00 | 0.00 | 77 | 1012.7 |
| 20260508043036 | 49 | 0.0 | 2.0 | 0.00 | 0.00 | 0.00 | 76 | 1012.6 | |
| 20260508042100 | 49 | 0.0 | 1.0 | 0.00 | 0.00 | 0.00 | 76 | 1012.5 | |
| 20260508041036 | 49 | 205 | 0.0 | 2.0 | 0.00 | 0.00 | 0.00 | 76 | 1012.4 |
| 20260508040100 | 49 | 227 | 0.0 | 2.0 | 0.00 | 0.00 | 0.00 | 75 | 1012.3 |
| 20260508035056 | 49 | 179 | 1.0 | 4.0 | 0.00 | 0.00 | 0.00 | 75 | 1012.4 |
| 20260508034100 | 49 | 204 | 0.0 | 2.0 | 0.00 | 0.00 | 0.00 | 75 | 1012.3 |
| 20260508033136 | 49 | 231 | 1.0 | 2.0 | 0.00 | 0.00 | 0.00 | 74 | 1012.4 |
| 20260508032140 | 49 | 173 | 1.0 | 3.0 | 0.00 | 0.00 | 0.00 | 74 | 1012.4 |
| 20260508031217 | 49 | 178 | 2.0 | 4.0 | 0.00 | 0.00 | 0.00 | 74 | 1012.4 |
| 20260508030120 | 49 | 236 | 1.0 | 4.0 | 0.00 | 0.00 | 0.00 | 74 | 1012.3 |
| 20260508025036 | 49 | 223 | 2.0 | 6.0 | 0.00 | 0.00 | 0.00 | 74 | 1012.3 |
| 20260508024100 | 49 | 231 | 1.0 | 4.0 | 0.00 | 0.00 | 0.00 | 73 | 1012.3 |
| 20260508023116 | 49 | 194 | 1.0 | 3.0 | 0.00 | 0.00 | 0.00 | 73 | 1012.2 |
| 20260508022100 | 49 | 228 | 1.0 | 2.0 | 0.00 | 0.00 | 0.00 | 73 | 1012.2 |
| 20260508021036 | 49 | 49 | 0.0 | 2.0 | 0.00 | 0.00 | 0.00 | 73 | 1012.2 |
| 20260508020100 | 49 | 208 | 1.0 | 2.0 | 0.00 | 0.00 | 0.00 | 74 | 1012.2 |
| 20260508015036 | 49 | 222 | 0.0 | 2.0 | 0.00 | 0.00 | 0.00 | 74 | 1012.3 |
| 20260508014120 | 48 | 212 | 1.0 | 4.0 | 0.00 | 0.00 | 0.00 | 75 | 1012.2 |
| 20260508013037 | 48 | 174 | 1.0 | 3.0 | 0.00 | 0.00 | 0.00 | 77 | 1012.2 |
| 20260508012120 | 47 | 187 | 1.0 | 3.0 | 0.00 | 0.00 | 0.00 | 78 | 1012.2 |
| 20260508011056 | 47 | 197 | 1.0 | 5.0 | 0.00 | 0.00 | 0.00 | 78 | 1012.2 |
| 20260508010100 | 47 | 197 | 0.0 | 2.0 | 0.00 | 0.00 | 0.00 | 78 | 1012.2 |
| 20260508005036 | 46 | 0.0 | 1.0 | 0.00 | 0.00 | 0.00 | 77 | 1012.2 | |
| 20260508004100 | 46 | 236 | 0.0 | 2.0 | 0.00 | 0.00 | 0.00 | 76 | 1012.2 |
| 20260508003056 | 47 | 212 | 0.0 | 2.0 | 0.00 | 0.00 | 0.00 | 76 | 1012.2 |
| 20260508002120 | 47 | 225 | 0.0 | 2.0 | 0.00 | 0.00 | 0.00 | 76 | 1012.3 |
| 20260508001056 | 47 | 0.0 | 1.0 | 0.00 | 0.00 | 0.00 | 75 | 1012.3 | |
| 20260508000100 | 47 | 315 | 0.0 | 1.0 | 0.00 | 0.00 | 0.00 | 75 | 1012.3 |
| 20260507235137 | 47 | 0.0 | 1.0 | 0.00 | 0.00 | 0.00 | 74 | 1012.3 | |
| 20260507234100 | 47 | 0.0 | 1.0 | 0.00 | 0.00 | 0.00 | 73 | 1012.3 | |
| 20260507233056 | 47 | 225 | 0.0 | 2.0 | 0.00 | 0.00 | 0.00 | 73 | 1012.2 |
| 20260507232101 | 48 | 290 | 0.0 | 2.0 | 0.00 | 0.00 | 0.00 | 72 | 1012.2 |
| 20260507231056 | 48 | 210 | 0.0 | 2.0 | 0.00 | 0.00 | 0.00 | 72 | 1012.2 |
| 20260507230100 | 48 | 144 | 0.0 | 2.0 | 0.00 | 0.00 | 0.00 | 71 | 1012.2 |
| 20260507225057 | 49 | 191 | 0.0 | 2.0 | 0.00 | 0.00 | 0.00 | 71 | 1012.2 |
| 20260507224121 | 49 | 0 | 0.0 | 2.0 | 0.00 | 0.00 | 0.00 | 71 | 1012.2 |
| 20260507223056 | 49 | 136 | 0.0 | 2.0 | 0.00 | 0.00 | 0.00 | 71 | 1012.2 |
| 20260507222100 | 50 | 321 | 1.0 | 3.0 | 0.00 | 0.00 | 0.00 | 70 | 1012.2 |
| 20260507221057 | 50 | 166 | 0.0 | 2.0 | 0.00 | 0.00 | 0.00 | 70 | 1012.2 |
| 20260507220100 | 51 | 248 | 1.0 | 2.0 | 0.00 | 0.00 | 0.00 | 70 | 1012.1 |
| 20260507215056 | 51 | 242 | 1.0 | 5.0 | 0.00 | 0.00 | 0.00 | 70 | 1012.1 |
| 20260507214200 | 51 | 108 | 1.0 | 5.0 | 0.00 | 0.00 | 0.00 | 69 | 1012.2 |
| 20260507213036 | 52 | 214 | 1.0 | 5.0 | 0.00 | 0.00 | 0.00 | 69 | 1012.2 |
| 20260507212201 | 52 | 199 | 2.0 | 5.0 | 0.00 | 0.00 | 0.00 | 69 | 1012.2 |
| 20260507211136 | 53 | 187 | 1.0 | 5.0 | 0.00 | 0.00 | 0.00 | 67 | 1012.1 |
| 20260507210120 | 53 | 206 | 1.0 | 4.0 | 0.00 | 0.00 | 0.00 | 66 | 1012.1 |
| 20260507205037 | 53 | 176 | 4.0 | 11.0 | 0.00 | 0.00 | 0.00 | 66 | 1012.0 |
| 20260507204101 | 53 | 213 | 3.0 | 7.0 | 0.00 | 0.00 | 0.00 | 65 | 1012.0 |
| 20260507203056 | 53 | 168 | 3.0 | 8.0 | 0.00 | 0.00 | 0.00 | 65 | 1012.0 |
| 20260507202201 | 54 | 195 | 3.0 | 8.0 | 0.00 | 0.00 | 0.00 | 65 | 1011.8 |
| 20260507201117 | 54 | 187 | 4.0 | 10.0 | 0.00 | 0.00 | 0.00 | 65 | 1011.7 |
| 20260507200120 | 54 | 226 | 4.0 | 9.0 | 0.00 | 0.00 | 0.00 | 64 | 1011.6 |
| 20260507195037 | 54 | 194 | 4.0 | 8.0 | 0.00 | 0.00 | 0.00 | 64 | 1011.5 |
| 20260507194100 | 54 | 197 | 4.0 | 9.0 | 0.00 | 0.00 | 0.00 | 64 | 1011.5 |
| 20260507193056 | 54 | 170 | 4.0 | 9.0 | 0.00 | 0.00 | 0.00 | 63 | 1011.3 |
| 20260507192121 | 55 | 187 | 4.0 | 8.0 | 0.00 | 0.00 | 0.00 | 60 | 1011.3 |
| 20260507191036 | 55 | 197 | 5.0 | 11.0 | 0.00 | 0.00 | 0.00 | 59 | 1011.3 |
| 20260507190101 | 55 | 217 | 4.0 | 11.0 | 0.00 | 0.00 | 0.00 | 59 | 1011.3 |
| 20260507185037 | 55 | 179 | 4.0 | 11.0 | 0.00 | 0.00 | 0.00 | 59 | 1011.3 |
| 20260507184141 | 55 | 194 | 4.0 | 8.0 | 0.00 | 0.00 | 0.00 | 59 | 1011.3 |
| 20260507183037 | 55 | 234 | 3.0 | 8.0 | 0.00 | 0.00 | 0.00 | 59 | 1011.3 |
| 20260507182241 | 55 | 197 | 4.0 | 9.0 | 0.00 | 0.00 | 0.00 | 59 | 1011.2 |
| 20260507181117 | 55 | 206 | 3.0 | 6.0 | 0.00 | 0.00 | 0.00 | 59 | 1011.2 |
| 20260507180100 | 55 | 219 | 2.0 | 5.0 | 0.00 | 0.00 | 0.00 | 60 | 1011.2 |
| 20260507175037 | 55 | 168 | 2.0 | 8.0 | 0.00 | 0.00 | 0.00 | 61 | 1011.2 |
| 20260507174140 | 56 | 221 | 1.0 | 2.0 | 0.00 | 0.00 | 0.00 | 60 | 1011.2 |
| 20260507173037 | 56 | 191 | 2.0 | 5.0 | 0.00 | 0.00 | 0.00 | 60 | 1011.3 |
| 20260507172101 | 56 | 245 | 2.0 | 7.0 | 0.00 | 0.00 | 0.00 | 62 | 1011.2 |
| 20260507171056 | 55 | 211 | 2.0 | 4.0 | 0.00 | 0.00 | 0.00 | 62 | 1011.3 |
| 20260507170101 | 55 | 238 | 1.0 | 4.0 | 0.00 | 0.00 | 0.00 | 62 | 1011.3 |
| 20260507165057 | 54 | 193 | 2.0 | 5.0 | 0.00 | 0.00 | 0.00 | 66 | 1011.4 |
| 20260507164101 | 54 | 244 | 1.0 | 4.0 | 0.00 | 0.00 | 0.00 | 67 | 1011.4 |
| 20260507163117 | 54 | 212 | 2.0 | 5.0 | 0.00 | 0.00 | 0.00 | 67 | 1011.6 |
| 20260507162121 | 54 | 221 | 4.0 | 7.0 | 0.00 | 0.00 | 0.00 | 66 | 1011.6 |
| 20260507161037 | 54 | 214 | 3.0 | 7.0 | 0.00 | 0.00 | 0.00 | 65 | 1011.7 |
| 20260507160101 | 54 | 185 | 4.0 | 8.0 | 0.00 | 0.00 | 0.00 | 64 | 1011.7 |
| 20260507155057 | 54 | 224 | 4.0 | 8.0 | 0.00 | 0.00 | 0.00 | 60 | 1011.7 |
| 20260507154101 | 56 | 232 | 7.0 | 16.0 | 0.00 | 0.00 | 0.00 | 56 | 1011.8 |
| 20260507153037 | 57 | 189 | 5.0 | 14.0 | 0.00 | 0.00 | 0.00 | 55 | 1011.5 |
| 20260507152201 | 57 | 182 | 5.0 | 11.0 | 0.00 | 0.00 | 0.00 | 56 | 1011.5 |
| 20260507151036 | 57 | 210 | 5.0 | 10.0 | 0.00 | 0.00 | 0.00 | 57 | 1011.6 |
| 20260507150101 | 57 | 246 | 5.0 | 11.0 | 0.00 | 0.00 | 0.00 | 57 | 1011.7 |
| 20260507145057 | 57 | 201 | 5.0 | 11.0 | 0.00 | 0.00 | 0.00 | 57 | 1011.7 |
| 20260507144141 | 56 | 234 | 6.0 | 14.0 | 0.00 | 0.00 | 0.00 | 57 | 1011.8 |
| 20260507143037 | 57 | 198 | 6.0 | 12.0 | 0.00 | 0.00 | 0.00 | 57 | 1011.8 |
| 20260507142121 | 57 | 263 | 5.0 | 9.0 | 0.00 | 0.00 | 0.00 | 58 | 1011.9 |
| 20260507141037 | 57 | 157 | 5.0 | 11.0 | 0.00 | 0.00 | 0.00 | 59 | 1012.0 |
| 20260507140121 | 56 | 171 | 5.0 | 10.0 | 0.00 | 0.00 | 0.00 | 59 | 1012.0 |
| 20260507135037 | 56 | 194 | 5.0 | 9.0 | 0.00 | 0.00 | 0.00 | 59 | 1012.1 |
| 20260507134101 | 56 | 132 | 5.0 | 8.0 | 0.00 | 0.00 | 0.00 | 60 | 1012.1 |